Location: Newark
(33.6333°S, 78.8500°W)
Time: 13:55:33
(UTC+00:00)

Tiros 1 - Pass Details

Date: 18 October 2019
Orbit: 630 x 664 km, 48.4° (Epoch: 18 November)

Event Time Altitude Azimuth Distance (km) Brightness Sun altitude
Rises 21:15:39 0° 251° (WSW) 2,941 11.5 27.2°
Reaches altitude 10° 21:18:56 10° 228° (SW) 2,031 10.4 26.5°
Maximum altitude 21:21:38 15° 192° (SSW) 1,718 9.5 25.9°
Drops below altitude 10° 21:24:20 10° 156° (SSE) 2,030 9.5 25.4°
Sets 21:27:37 0° 133° (SE) 2,940 10.1 24.7°
